Radiation Dose at Monitoring Post of Fukushima Daini Nuclear Power Station
Date,Time,MP-1(microSv/h),MP-2(microSv/h),MP-3(microSv/h),MP-4(microSv/h),MP-5(microSv/h),MP-6(microSv/h),MP-7(microSv/h),Wind Direction,Wind Velocity(m/s),Rain
2022/04/08,00:00,0.156,0.142,0.225,0.217,0.222,0.124,0.080,northwest,1.6,No
2022/04/08,00:10,0.156,0.141,0.222,0.216,0.222,0.123,0.080,north,1.9,No
2022/04/08,00:20,0.156,0.141,0.223,0.215,0.220,0.124,0.079,north-northwest,2.1,No
2022/04/08,00:30,0.156,0.142,0.223,0.215,0.220,0.124,0.079,north,2.2,No
2022/04/08,00:40,0.154,0.140,0.222,0.216,0.219,0.123,0.079,north,2.1,No
2022/04/08,00:50,0.155,0.140,0.222,0.215,0.220,0.124,0.078,northwest,3.7,No
2022/04/08,01:00,0.156,0.141,0.221,0.215,0.221,0.123,0.078,north-northwest,2.2,No
2022/04/08,01:10,0.155,0.140,0.222,0.215,0.219,0.123,0.078,north-northwest,2.5,No
2022/04/08,01:20,0.155,0.141,0.222,0.214,0.219,0.122,0.078,north,1.6,No
2022/04/08,01:30,0.154,0.140,0.221,0.216,0.219,0.123,0.078,northwest,2.2,No
2022/04/08,01:40,0.154,0.140,0.223,0.215,0.219,0.122,0.078,northwest,2.5,No
2022/04/08,01:50,0.154,0.139,0.222,0.216,0.220,0.123,0.078,northwest,2.8,No
2022/04/08,02:00,0.155,0.139,0.222,0.215,0.219,0.122,0.078,northwest,1.9,No
2022/04/08,02:10,0.155,0.139,0.222,0.214,0.219,0.122,0.077,north-northwest,1.0,No
2022/04/08,02:20,0.155,0.140,0.222,0.215,0.219,0.123,0.078,west,1.8,No
2022/04/08,02:30,0.154,0.140,0.222,0.215,0.220,0.122,0.078,west-northwest,4.6,No
2022/04/08,02:40,0.154,0.141,0.222,0.215,0.219,0.122,0.077,west-northwest,5.0,No
2022/04/08,02:50,0.155,0.141,0.221,0.215,0.219,0.121,0.078,west-northwest,5.9,No
2022/04/08,03:00,0.154,0.140,0.222,0.214,0.218,0.122,0.077,west-northwest,5.2,No
2022/04/08,03:10,0.155,0.141,0.223,0.215,0.219,0.123,0.078,northwest,4.1,No
2022/04/08,03:20,0.155,0.141,0.222,0.214,0.219,0.123,0.078,west-northwest,5.5,No
2022/04/08,03:30,0.155,0.140,0.222,0.214,0.219,0.122,0.078,west-northwest,3.3,No
2022/04/08,03:40,0.154,0.139,0.221,0.214,0.219,0.122,0.078,west-northwest,6.1,No
2022/04/08,03:50,0.155,0.141,0.222,0.215,0.219,0.122,0.078,west,7.4,No
2022/04/08,04:00,0.154,0.140,0.223,0.214,0.219,0.122,0.078,west,9.7,No
2022/04/08,04:10,0.154,0.140,0.222,0.215,0.220,0.122,0.078,west,11.1,No
2022/04/08,04:20,0.156,0.141,0.221,0.213,0.219,0.123,0.077,west-northwest,8.7,No
2022/04/08,04:30,0.155,0.140,0.223,0.215,0.220,0.122,0.078,west-northwest,9.3,No
2022/04/08,04:40,0.155,0.140,0.223,0.214,0.220,0.123,0.079,west,6.5,No
2022/04/08,04:50,0.155,0.140,0.222,0.216,0.220,0.122,0.078,west-southwest,3.3,No
2022/04/08,05:00,0.155,0.141,0.222,0.215,0.221,0.122,0.078,west-northwest,4.7,No
2022/04/08,05:10,0.155,0.140,0.222,0.216,0.219,0.122,0.078,west,1.0,No
2022/04/08,05:20,0.156,0.141,0.222,0.215,0.220,0.122,0.078,-,CALM,No
2022/04/08,05:30,0.155,0.142,0.222,0.216,0.220,0.122,0.078,-,CALM,No
2022/04/08,05:40,0.155,0.140,0.222,0.216,0.219,0.123,0.078,northwest,3.3,No
2022/04/08,05:50,0.156,0.141,0.222,0.215,0.220,0.123,0.077,west-northwest,2.4,No
2022/04/08,06:00,0.155,0.140,0.223,0.215,0.220,0.123,0.078,north-northwest,2.8,No
2022/04/08,06:10,0.154,0.141,0.221,0.216,0.220,0.122,0.078,northwest,4.3,No
2022/04/08,06:20,0.155,0.139,0.222,0.216,0.219,0.123,0.077,north-northwest,3.0,No
2022/04/08,06:30,0.155,0.142,0.222,0.214,0.219,0.123,0.077,west-northwest,7.1,No
2022/04/08,06:40,0.155,0.141,0.222,0.214,0.219,0.123,0.078,west-northwest,5.4,No
2022/04/08,06:50,0.155,0.141,0.221,0.215,0.220,0.123,0.078,west-northwest,5.2,No
2022/04/08,07:00,0.155,0.141,0.221,0.215,0.219,0.123,0.077,northwest,2.4,No
2022/04/08,07:10,0.154,0.142,0.223,0.216,0.220,0.123,0.078,northwest,4.8,No
2022/04/08,07:20,0.155,0.141,0.221,0.215,0.219,0.123,0.078,west-northwest,9.6,No
2022/04/08,07:30,0.155,0.139,0.220,0.213,0.221,0.122,0.078,northwest,10.2,No
2022/04/08,07:40,0.154,0.141,0.222,0.214,0.220,0.122,0.078,west-northwest,10.4,No
2022/04/08,07:50,0.155,0.140,0.221,0.215,0.219,0.123,0.077,northwest,9.6,No
2022/04/08,08:00,0.154,0.141,0.222,0.215,0.220,0.123,0.077,west-northwest,10.5,No
2022/04/08,08:10,0.154,0.140,0.222,0.216,0.220,0.122,0.078,west-northwest,10.2,No
2022/04/08,08:20,0.155,0.140,0.222,0.214,0.220,0.122,0.077,west,9.9,No
2022/04/08,08:30,0.156,0.141,0.223,0.215,0.222,0.123,0.078,west-northwest,10.0,No
2022/04/08,08:40,0.155,0.139,0.222,0.215,0.220,0.123,0.078,west-northwest,9.9,No
2022/04/08,08:50,0.156,0.141,0.222,0.214,0.219,0.122,0.077,west-northwest,11.7,No
2022/04/08,09:00,0.154,0.139,0.222,0.215,0.220,0.122,0.078,west-northwest,9.0,No
2022/04/08,09:10,0.156,0.140,0.222,0.215,0.220,0.122,0.078,west-northwest,9.3,No
2022/04/08,09:20,0.155,0.141,0.223,0.215,0.220,0.122,0.077,west-northwest,6.9,No
2022/04/08,09:30,0.155,0.140,0.224,0.215,0.219,0.123,0.078,west-northwest,5.9,No
2022/04/08,09:40,0.154,0.140,0.222,0.213,0.219,0.123,0.077,west-northwest,7.3,No
2022/04/08,09:50,0.155,0.141,0.222,0.215,0.220,0.122,0.078,west-northwest,6.5,No
2022/04/08,10:00,0.155,0.140,0.221,0.214,0.218,0.123,0.077,northwest,4.1,No
2022/04/08,10:10,0.154,0.141,0.223,0.216,0.221,0.122,0.078,northwest,7.3,No
2022/04/08,10:20,0.155,0.140,0.222,0.215,0.218,0.122,0.078,northwest,5.9,No
2022/04/08,10:30,0.155,0.140,0.222,0.214,0.220,0.122,0.078,west-northwest,6.6,No
2022/04/08,10:40,0.154,0.140,0.224,0.216,0.220,0.122,0.079,west-northwest,7.9,No
2022/04/08,10:50,0.155,0.141,0.221,0.215,0.219,0.123,0.078,northwest,6.0,No
2022/04/08,11:00,0.154,0.140,0.224,0.216,0.220,0.122,0.078,west-northwest,5.1,No
2022/04/08,11:10,0.155,0.141,0.223,0.215,0.217,0.124,0.079,west-northwest,5.7,No
2022/04/08,11:20,0.155,0.140,0.223,0.214,0.221,0.122,0.078,northwest,5.2,No
2022/04/08,11:30,0.155,0.140,0.225,0.216,0.221,0.123,0.078,northwest,6.0,No
2022/04/08,11:40,0.156,0.140,0.221,0.214,0.218,0.122,0.078,northwest,6.3,No
2022/04/08,11:50,0.154,0.140,0.224,0.216,0.221,0.122,0.078,west-northwest,3.8,No
2022/04/08,12:00,0.155,0.142,0.224,0.216,0.220,0.121,0.079,west-northwest,3.8,No
2022/04/08,12:10,0.155,0.141,0.222,0.215,0.218,0.122,0.078,northwest,1.9,No
2022/04/08,12:20,0.154,0.140,0.222,0.217,0.220,0.124,0.077,east,5.7,No
2022/04/08,12:30,0.156,0.140,0.223,0.217,0.221,0.121,0.078,east-southeast,6.4,No
2022/04/08,12:40,0.155,0.141,0.223,0.215,0.219,0.122,0.078,east-southeast,6.6,No
2022/04/08,12:50,0.156,0.141,0.225,0.217,0.222,0.123,0.079,east-southeast,6.0,No
2022/04/08,13:00,0.155,0.141,0.224,0.215,0.219,0.123,0.079,east-southeast,6.3,No
2022/04/08,13:10,0.154,0.140,0.224,0.217,0.221,0.123,0.078,east-southeast,5.7,No
2022/04/08,13:20,0.155,0.141,0.224,0.216,0.221,0.123,0.077,east-southeast,4.6,No
2022/04/08,13:30,0.157,0.142,0.222,0.217,0.221,0.123,0.079,east-southeast,5.2,No
2022/04/08,13:40,0.155,0.141,0.225,0.217,0.221,0.123,0.078,east-southeast,5.5,No
2022/04/08,13:50,0.155,0.141,0.223,0.216,0.219,0.123,0.078,east-southeast,6.5,No
2022/04/08,14:00,0.156,0.140,0.224,0.217,0.221,0.123,0.078,east-southeast,5.9,No
2022/04/08,14:10,0.154,0.141,0.224,0.216,0.220,0.123,0.078,east-southeast,5.2,No
2022/04/08,14:20,0.155,0.140,0.223,0.218,0.220,0.123,0.078,east-southeast,5.1,No
2022/04/08,14:30,0.156,0.141,0.225,0.216,0.222,0.122,0.078,east-southeast,4.4,No
2022/04/08,14:40,0.153,0.139,0.223,0.217,0.219,0.122,0.078,east,5.2,No
2022/04/08,14:50,0.156,0.141,0.225,0.216,0.223,0.124,0.078,east,5.5,No
2022/04/08,15:00,0.156,0.141,0.224,0.218,0.220,0.123,0.078,east-northeast,3.2,No
2022/04/08,15:10,0.157,0.141,0.226,0.217,0.222,0.123,0.078,northeast,3.9,No
2022/04/08,15:20,0.155,0.141,0.224,0.218,0.220,0.123,0.078,northeast,3.8,No
2022/04/08,15:30,0.156,0.141,0.224,0.218,0.220,0.123,0.078,north-northeast,3.2,No
2022/04/08,15:40,0.155,0.141,0.226,0.218,0.222,0.122,0.079,northeast,4.4,No
2022/04/08,15:50,0.157,0.141,0.226,0.217,0.220,0.123,0.078,northeast,4.0,No
2022/04/08,16:00,0.155,0.143,0.225,0.218,0.221,0.123,0.078,north-northeast,2.5,No
2022/04/08,16:10,0.157,0.142,0.226,0.218,0.220,0.122,0.078,northeast,2.7,No
2022/04/08,16:20,0.156,0.141,0.226,0.219,0.222,0.122,0.079,east,1.3,No
2022/04/08,16:30,0.156,0.141,0.226,0.218,0.220,0.124,0.079,east,1.0,No
2022/04/08,16:40,0.157,0.142,0.226,0.217,0.221,0.124,0.079,northeast,2.9,No
2022/04/08,16:50,0.156,0.141,0.225,0.217,0.220,0.123,0.078,east-northeast,1.4,No
2022/04/08,17:00,0.156,0.142,0.225,0.217,0.223,0.124,0.078,east,1.4,No
2022/04/08,17:10,0.157,0.141,0.226,0.217,0.221,0.123,0.079,east-northeast,0.8,No
2022/04/08,17:20,0.155,0.141,0.226,0.218,0.223,0.124,0.078,east-southeast,1.3,No
2022/04/08,17:30,0.156,0.142,0.225,0.217,0.222,0.123,0.079,east,1.3,No
2022/04/08,17:40,0.156,0.142,0.224,0.218,0.220,0.124,0.078,east-southeast,0.8,No
2022/04/08,17:50,0.156,0.142,0.226,0.217,0.223,0.123,0.078,east-southeast,0.8,No
2022/04/08,18:00,0.157,0.143,0.226,0.217,0.222,0.124,0.078,east,0.7,No
2022/04/08,18:10,0.155,0.142,0.223,0.218,0.222,0.123,0.078,east,0.8,No
2022/04/08,18:20,0.155,0.141,0.226,0.218,0.222,0.124,0.078,east,0.7,No
2022/04/08,18:30,0.157,0.142,0.225,0.217,0.220,0.123,0.079,east-southeast,0.7,No
2022/04/08,18:40,0.156,0.143,0.226,0.219,0.222,0.124,0.078,east,0.8,No
2022/04/08,18:50,0.154,0.142,0.224,0.217,0.222,0.124,0.078,east-northeast,0.8,No
2022/04/08,19:00,0.156,0.141,0.225,0.216,0.220,0.124,0.078,northeast,0.8,No
2022/04/08,19:10,0.156,0.142,0.225,0.218,0.222,0.124,0.078,-,CALM,No
2022/04/08,19:20,0.155,0.142,0.225,0.218,0.221,0.124,0.078,east-northeast,0.8,No
2022/04/08,19:30,0.156,0.140,0.226,0.219,0.221,0.122,0.078,northeast,0.7,No
2022/04/08,19:40,0.156,0.141,0.226,0.218,0.220,0.124,0.078,north-northeast,0.5,No
2022/04/08,19:50,0.157,0.142,0.225,0.217,0.220,0.123,0.078,-,CALM,No
2022/04/08,20:00,0.155,0.141,0.226,0.218,0.220,0.123,0.078,east-southeast,0.5,No
2022/04/08,20:10,0.156,0.141,0.225,0.219,0.221,0.122,0.079,-,CALM,No
2022/04/08,20:20,0.157,0.141,0.224,0.218,0.221,0.124,0.078,east-southeast,0.7,No
2022/04/08,20:30,0.156,0.142,0.226,0.217,0.221,0.123,0.078,-,CALM,No
2022/04/08,20:40,0.155,0.141,0.225,0.218,0.221,0.123,0.078,-,CALM,No
2022/04/08,20:50,0.156,0.141,0.225,0.217,0.221,0.123,0.078,-,CALM,No
2022/04/08,21:00,0.157,0.141,0.224,0.217,0.223,0.123,0.078,-,CALM,No
2022/04/08,21:10,0.155,0.141,0.226,0.218,0.222,0.123,0.078,south-southwest,1.1,No
2022/04/08,21:20,0.156,0.141,0.226,0.216,0.221,0.123,0.078,south-southwest,0.8,No
2022/04/08,21:30,0.156,0.141,0.226,0.217,0.221,0.123,0.079,south-southwest,1.6,No
2022/04/08,21:40,0.155,0.141,0.226,0.219,0.221,0.123,0.079,south,2.2,No
2022/04/08,21:50,0.156,0.142,0.225,0.218,0.220,0.123,0.078,south,2.9,No
2022/04/08,22:00,0.156,0.141,0.225,0.218,0.221,0.123,0.078,south,2.9,No
2022/04/08,22:10,0.156,0.141,0.226,0.217,0.222,0.123,0.078,south,3.7,No
2022/04/08,22:20,0.156,0.141,0.226,0.218,0.221,0.123,0.079,south,3.8,No
2022/04/08,22:30,0.156,0.140,0.225,0.217,0.222,0.123,0.078,south,3.3,No
2022/04/08,22:40,0.156,0.142,0.226,0.217,0.221,0.123,0.079,south-southwest,4.0,No
2022/04/08,22:50,0.155,0.142,0.225,0.217,0.221,0.123,0.077,south,4.0,No
2022/04/08,23:00,0.156,0.141,0.225,0.218,0.222,0.123,0.078,south-southwest,4.9,No
2022/04/08,23:10,0.155,0.142,0.226,0.218,0.221,0.124,0.078,south-southwest,5.0,No
2022/04/08,23:20,0.157,0.142,0.225,0.217,0.221,0.123,0.079,south-southwest,4.8,No
2022/04/08,23:30,0.156,0.141,0.225,0.218,0.222,0.123,0.079,south-southwest,4.1,No
2022/04/08,23:40,0.157,0.141,0.225,0.217,0.221,0.123,0.079,south-southwest,4.8,No
2022/04/08,23:50,0.156,0.143,0.226,0.218,0.221,0.124,0.079,south-southwest,4.1,No
